Location: Trebic
(49.2170°N, 15.8830°E)
Time: 04:02:48
(UTC+02:00)

Transit 4A - Pass Details

Date: 28 August 2019
Orbit: 866 x 978 km, 66.8° (Epoch: 16 October)

Event Time Altitude Azimuth Distance (km) Brightness Sun altitude
Rises 22:41:04 0° 310° (NW) 3,671 12.3 -24.0°
Reaches altitude 10° 22:44:48 10° 331° (NNW) 2,708 11.4 -24.4°
Maximum altitude 22:48:36 16° 8° (N) 2,269 10.4 -24.7°
Drops below altitude 10° 22:52:21 10° 46° (NE) 2,666 10.4 -25.1°
Sets 22:55:59 0° 67° (ENE) 3,585 10.9 -25.4°
